Location: Clermont
(50.2608°N, 4.3172°E)
Time: 05:34:52
(UTC+00:00)

Cosmos 405 Rocket - Pass Details

Date: 13 August 2020
Orbit: 490 x 553 km, 81.3° (Epoch: 19 September)

Event Time Altitude Azimuth Distance (km) Brightness Sun altitude
Exits shadow 21:17:52 10° 212° (SSW) 1,664 5.1 -17.6°
Maximum altitude 21:21:22 46° 287° (WNW) 685 3.6 -17.9°
Drops below altitude 10° 21:25:02 10° 1° (N) 1,729 6.1 -18.3°
Sets 21:27:15 0° 8° (N) 2,630 7.0 -18.5°
